sat.trackr.live / text

‹ back to catalog

STARLINK-36357

NORAD 67963 · 2026-038C

PAYLOAD ACTIVE UNKNOWN

§ Identity

Operator
Country
US
Launch date
2026-02-25
Launch site
AFWTR
Launch vehicle
Mass (kg)
RCS (m²)

Purposes: comms

External: N2YO · Heavens-Above · Gunter

§ Orbital elements

Epoch: 2026-05-25T00:26:32.057376Z

Period
93.91 min
Inclination
97.2841°
Eccentricity
0.0000845
Mean motion
15.33446044 rev/d
Perigee alt
465.0 km
Apogee alt
466.1 km
Semi-major
6,843.7 km
B*
3.9458e-4
RAAN
154.9989°
Arg perigee
84.4218°
Mean anomaly
275.7121°
Rev number
1,493

§ Raw data

STARLINK-363571 67963U 26038C   26145.01842659  .00012685  00000+0  39458-3 0  99962 67963  97.2841 154.9989 0000845  84.4218 275.7121 15.33446044 14939

JSON: /api/v1/satellites/67963 · /tle

For live sub-satellite position, see the globe view (requires WebGL).

§ Visibility from observer

Set your observer location to see the next 7 days of passes ≥ 10°. The values pass through the URL so the page stays shareable.

No JS? Fill the form by hand. The geolocation button needs JavaScript.